Time,TemperatureF,DewpointF,PressureIn,WindDirection,WindDirectionDegrees,WindSpeedMPH,WindSpeedGustMPH,Humidity,HourlyPrecipIn,Conditions,Clouds,dailyrainin,SolarRadiationWatts/m^2,SoftwareType,DateUTC
2013-06-29 00:12:00,76.7,61.0,29.85,NW,311,1.0,-999.0,59,-99.99,,,0.00,0,weatherlink.com 1.10,2013-06-29 05:12:00,
2013-06-29 00:27:00,76.6,60.0,29.85,NW,311,0.0,-999.0,57,-99.99,,,0.00,0,weatherlink.com 1.10,2013-06-29 05:27:00,
2013-06-29 00:42:00,76.6,60.0,29.85,NW,308,0.0,-999.0,57,-99.99,,,0.00,0,weatherlink.com 1.10,2013-06-29 05:42:00,
2013-06-29 00:57:00,75.8,61.0,29.85,NW,308,0.0,-999.0,60,-99.99,,,0.00,0,weatherlink.com 1.10,2013-06-29 05:57:00,
2013-06-29 01:12:00,74.9,61.0,29.85,NW,308,2.0,-999.0,62,-99.99,,,0.00,0,weatherlink.com 1.10,2013-06-29 06:12:00,
2013-06-29 01:27:00,74.2,61.0,29.86,NW,308,1.0,-999.0,63,-99.99,,,0.00,0,weatherlink.com 1.10,2013-06-29 06:27:00,
2013-06-29 01:42:00,74.0,60.0,29.85,NW,308,0.0,-999.0,62,-99.99,,,0.00,0,weatherlink.com 1.10,2013-06-29 06:42:00,
2013-06-29 01:58:00,73.8,60.0,29.85,NW,308,0.0,-999.0,62,-99.99,,,0.00,0,weatherlink.com 1.10,2013-06-29 06:58:00,
2013-06-29 02:12:00,73.9,60.0,29.84,NW,308,0.0,-999.0,62,-99.99,,,0.00,0,weatherlink.com 1.10,2013-06-29 07:12:00,
2013-06-29 02:27:00,73.7,61.0,29.84,NW,308,0.0,-999.0,64,-99.99,,,0.00,0,weatherlink.com 1.10,2013-06-29 07:27:00,
2013-06-29 02:42:00,72.9,60.0,29.84,NW,308,0.0,-999.0,64,-99.99,,,0.00,0,weatherlink.com 1.10,2013-06-29 07:42:00,
2013-06-29 02:57:00,72.6,60.0,29.84,NW,308,0.0,-999.0,65,-99.99,,,0.00,0,weatherlink.com 1.10,2013-06-29 07:57:00,
2013-06-29 03:12:00,72.1,60.0,29.83,NW,308,2.0,-999.0,66,-99.99,,,0.00,0,weatherlink.com 1.10,2013-06-29 08:12:00,
2013-06-29 03:27:00,71.7,61.0,29.83,NW,308,0.0,-999.0,68,-99.99,,,0.00,0,weatherlink.com 1.10,2013-06-29 08:27:00,
2013-06-29 03:43:00,71.4,61.0,29.83,NW,308,0.0,-999.0,69,-99.99,,,0.00,0,weatherlink.com 1.10,2013-06-29 08:43:00,
2013-06-29 03:58:00,70.9,61.0,29.83,NW,308,0.0,-999.0,70,-99.99,,,0.00,0,weatherlink.com 1.10,2013-06-29 08:58:00,
2013-06-29 04:13:00,70.6,61.0,29.82,NW,308,0.0,-999.0,71,-99.99,,,0.00,0,weatherlink.com 1.10,2013-06-29 09:13:00,
2013-06-29 04:28:00,70.5,61.0,29.83,NW,307,0.0,-999.0,72,-99.99,,,0.00,0,weatherlink.com 1.10,2013-06-29 09:28:00,
2013-06-29 04:43:00,70.3,61.0,29.83,NW,308,0.0,-999.0,72,-99.99,,,0.00,0,weatherlink.com 1.10,2013-06-29 09:43:00,
2013-06-29 04:58:00,70.1,61.0,29.83,NW,308,0.0,-999.0,73,-99.99,,,0.00,0,weatherlink.com 1.10,2013-06-29 09:58:00,
2013-06-29 05:13:00,69.9,61.0,29.82,NW,307,0.0,-999.0,74,-99.99,,,0.00,0,weatherlink.com 1.10,2013-06-29 10:13:00,
2013-06-29 05:28:00,69.9,61.0,29.82,NW,307,0.0,-999.0,74,-99.99,,,0.00,0,weatherlink.com 1.10,2013-06-29 10:28:00,
2013-06-29 05:43:00,69.9,61.0,29.83,NW,307,5.0,-999.0,73,-99.99,,,0.00,0,weatherlink.com 1.10,2013-06-29 10:43:00,
2013-06-29 05:58:00,69.8,61.0,29.83,NW,307,0.0,-999.0,73,-99.99,,,0.00,0,weatherlink.com 1.10,2013-06-29 10:58:00,
2013-06-29 06:13:00,69.8,61.0,29.83,NW,307,2.0,-999.0,73,-99.99,,,0.00,11,weatherlink.com 1.10,2013-06-29 11:13:00,
2013-06-29 06:28:00,70.0,61.0,29.83,WNW,297,5.0,-999.0,72,-99.99,,,0.00,23,weatherlink.com 1.10,2013-06-29 11:28:00,
2013-06-29 06:43:00,70.3,61.0,29.84,WNW,296,0.0,-999.0,72,-99.99,,,0.00,35,weatherlink.com 1.10,2013-06-29 11:43:00,
2013-06-29 06:58:00,70.6,61.0,29.84,WNW,297,2.0,-999.0,72,-99.99,,,0.00,74,weatherlink.com 1.10,2013-06-29 11:58:00,
2013-06-29 07:13:00,71.3,61.0,29.83,WNW,295,0.0,-999.0,71,-99.99,,,0.00,151,weatherlink.com 1.10,2013-06-29 12:13:00,
2013-06-29 07:29:00,72.1,61.0,29.83,WNW,296,1.0,-999.0,69,-99.99,,,0.00,197,weatherlink.com 1.10,2013-06-29 12:29:00,
2013-06-29 07:44:00,72.7,62.0,29.83,WNW,303,0.0,-999.0,69,-99.99,,,0.00,244,weatherlink.com 1.10,2013-06-29 12:44:00,
2013-06-29 07:59:00,73.4,62.0,29.84,WNW,301,6.0,-999.0,68,-99.99,,,0.00,292,weatherlink.com 1.10,2013-06-29 12:59:00,
2013-06-29 08:14:00,74.3,63.0,29.84,WNW,297,1.0,-999.0,67,-99.99,,,0.00,339,weatherlink.com 1.10,2013-06-29 13:14:00,
2013-06-29 08:29:00,75.1,62.0,29.83,NW,314,6.0,-999.0,65,-99.99,,,0.00,388,weatherlink.com 1.10,2013-06-29 13:29:00,
2013-06-29 08:44:00,75.9,63.0,29.84,NW,315,0.0,-999.0,64,-99.99,,,0.00,436,weatherlink.com 1.10,2013-06-29 13:44:00,
2013-06-29 08:59:00,76.6,63.0,29.84,NW,319,7.0,-999.0,63,-99.99,,,0.00,482,weatherlink.com 1.10,2013-06-29 13:59:00,
2013-06-29 09:14:00,77.1,63.0,29.84,NNW,343,7.0,-999.0,61,-99.99,,,0.00,527,weatherlink.com 1.10,2013-06-29 14:14:00,
2013-06-29 09:29:00,77.4,63.0,29.84,NW,315,12.0,-999.0,61,-99.99,,,0.00,570,weatherlink.com 1.10,2013-06-29 14:29:00,
2013-06-29 09:44:00,78.3,63.0,29.84,NW,321,10.0,-999.0,59,-99.99,,,0.00,612,weatherlink.com 1.10,2013-06-29 14:44:00,
2013-06-29 09:59:00,79.2,62.0,29.83,NW,320,19.0,-999.0,56,-99.99,,,0.00,654,weatherlink.com 1.10,2013-06-29 14:59:00,
2013-06-29 10:14:00,80.1,63.0,29.83,NW,306,18.0,-999.0,57,-99.99,,,0.00,694,weatherlink.com 1.10,2013-06-29 15:14:00,
2013-06-29 10:30:00,80.5,62.0,29.83,NNW,333,9.0,-999.0,53,-99.99,,,0.00,735,weatherlink.com 1.10,2013-06-29 15:30:00,
2013-06-29 10:45:00,80.9,61.0,29.82,WNW,288,16.0,-999.0,51,-99.99,,,0.00,795,weatherlink.com 1.10,2013-06-29 15:45:00,
2013-06-29 11:00:00,81.2,60.0,29.82,NW,325,12.0,-999.0,49,-99.99,,,0.00,846,weatherlink.com 1.10,2013-06-29 16:00:00,
2013-06-29 11:15:00,81.9,60.0,29.82,NNW,336,18.0,-999.0,48,-99.99,,,0.00,867,weatherlink.com 1.10,2013-06-29 16:15:00,
2013-06-29 11:30:00,82.1,59.0,29.83,NW,326,15.0,-999.0,45,-99.99,,,0.00,921,weatherlink.com 1.10,2013-06-29 16:30:00,
2013-06-29 11:45:00,82.5,58.0,29.82,NW,321,13.0,-999.0,43,-99.99,,,0.00,962,weatherlink.com 1.10,2013-06-29 16:45:00,
2013-06-29 12:00:00,82.5,58.0,29.82,NNW,338,13.0,-999.0,44,-99.99,,,0.00,953,weatherlink.com 1.10,2013-06-29 17:00:00,
2013-06-29 12:15:00,83.0,58.0,29.82,NNW,333,19.0,-999.0,42,-99.99,,,0.00,220,weatherlink.com 1.10,2013-06-29 17:15:00,
2013-06-29 12:30:00,82.7,58.0,29.82,NW,307,16.0,-999.0,43,-99.99,,,0.00,1027,weatherlink.com 1.10,2013-06-29 17:30:00,
2013-06-29 12:45:00,83.0,58.0,29.82,NW,306,15.0,-999.0,43,-99.99,,,0.00,353,weatherlink.com 1.10,2013-06-29 17:45:00,
2013-06-29 13:00:00,83.5,55.0,29.82,NW,311,17.0,-999.0,38,-99.99,,,0.00,1013,weatherlink.com 1.10,2013-06-29 18:00:00,
2013-06-29 13:15:00,83.6,57.0,29.81,NW,325,11.0,-999.0,41,-99.99,,,0.00,1056,weatherlink.com 1.10,2013-06-29 18:15:00,
2013-06-29 13:30:00,83.7,55.0,29.80,NW,322,22.0,-999.0,38,-99.99,,,0.00,229,weatherlink.com 1.10,2013-06-29 18:30:00,
2013-06-29 13:45:00,84.4,55.0,29.80,NW,314,21.0,-999.0,37,-99.99,,,0.00,1035,weatherlink.com 1.10,2013-06-29 18:45:00,
2013-06-29 14:00:00,83.8,56.0,29.80,NW,313,17.0,-999.0,39,-99.99,,,0.00,1041,weatherlink.com 1.10,2013-06-29 19:00:00,
2013-06-29 14:15:00,84.1,59.0,29.80,NW,305,12.0,-999.0,42,-99.99,,,0.00,1037,weatherlink.com 1.10,2013-06-29 19:15:00,
2013-06-29 14:30:00,84.0,56.0,29.79,NNW,329,18.0,-999.0,38,-99.99,,,0.00,1039,weatherlink.com 1.10,2013-06-29 19:30:00,
2013-06-29 14:45:00,84.6,56.0,29.79,WNW,289,11.0,-999.0,38,-99.99,,,0.00,244,weatherlink.com 1.10,2013-06-29 19:45:00,
2013-06-29 15:00:00,84.8,57.0,29.79,NW,311,19.0,-999.0,39,-99.99,,,0.00,292,weatherlink.com 1.10,2013-06-29 20:00:00,
2013-06-29 15:15:00,85.0,56.0,29.78,NW,313,11.0,-999.0,37,-99.99,,,0.00,962,weatherlink.com 1.10,2013-06-29 20:15:00,
2013-06-29 15:30:00,85.8,57.0,29.78,NNW,331,15.0,-999.0,38,-99.99,,,0.00,916,weatherlink.com 1.10,2013-06-29 20:30:00,
2013-06-29 15:45:00,85.7,58.0,29.78,North,355,11.0,-999.0,39,-99.99,,,0.00,902,weatherlink.com 1.10,2013-06-29 20:45:00,
2013-06-29 16:00:00,85.2,58.0,29.78,NW,317,11.0,-999.0,39,-99.99,,,0.00,830,weatherlink.com 1.10,2013-06-29 21:00:00,
2013-06-29 16:15:00,85.4,58.0,29.77,WNW,303,11.0,-999.0,39,-99.99,,,0.00,770,weatherlink.com 1.10,2013-06-29 21:15:00,
2013-06-29 16:30:00,84.8,56.0,29.77,NNW,333,18.0,-999.0,38,-99.99,,,0.00,780,weatherlink.com 1.10,2013-06-29 21:30:00,
2013-06-29 16:45:00,85.2,58.0,29.77,NW,313,16.0,-999.0,39,-99.99,,,0.00,664,weatherlink.com 1.10,2013-06-29 21:45:00,
2013-06-29 17:00:00,85.2,56.0,29.77,WNW,283,18.0,-999.0,37,-99.99,,,0.00,626,weatherlink.com 1.10,2013-06-29 22:00:00,
2013-06-29 17:15:00,85.3,57.0,29.77,NNW,335,12.0,-999.0,38,-99.99,,,0.00,621,weatherlink.com 1.10,2013-06-29 22:15:00,
2013-06-29 17:30:00,84.9,56.0,29.77,NW,320,10.0,-999.0,37,-99.99,,,0.00,531,weatherlink.com 1.10,2013-06-29 22:30:00,
2013-06-29 17:45:00,84.7,56.0,29.77,North,355,19.0,-999.0,38,-99.99,,,0.00,464,weatherlink.com 1.10,2013-06-29 22:45:00,
2013-06-29 18:00:00,84.3,57.0,29.77,NNW,345,10.0,-999.0,40,-99.99,,,0.00,408,weatherlink.com 1.10,2013-06-29 23:00:00,
2013-06-29 18:15:00,84.1,55.0,29.77,NW,304,11.0,-999.0,37,-99.99,,,0.00,53,weatherlink.com 1.10,2013-06-29 23:15:00,
2013-06-29 18:30:00,83.9,56.0,29.77,NNW,331,14.0,-999.0,38,-99.99,,,0.00,44,weatherlink.com 1.10,2013-06-29 23:30:00,
2013-06-29 18:45:00,83.6,57.0,29.77,NW,323,10.0,-999.0,40,-99.99,,,0.00,42,weatherlink.com 1.10,2013-06-29 23:45:00,
2013-06-29 19:00:00,83.2,54.0,29.77,NW,313,9.0,-999.0,37,-99.99,,,0.00,72,weatherlink.com 1.10,2013-06-30 00:00:00,
2013-06-29 19:15:00,82.9,55.0,29.76,NW,317,13.0,-999.0,39,-99.99,,,0.00,35,weatherlink.com 1.10,2013-06-30 00:15:00,
2013-06-29 19:30:00,82.7,55.0,29.77,NNW,332,15.0,-999.0,39,-99.99,,,0.00,28,weatherlink.com 1.10,2013-06-30 00:30:00,
2013-06-29 19:45:00,82.4,56.0,29.77,NW,314,13.0,-999.0,41,-99.99,,,0.00,32,weatherlink.com 1.10,2013-06-30 00:45:00,
2013-06-29 20:00:00,81.7,56.0,29.77,WNW,303,5.0,-999.0,42,-99.99,,,0.00,18,weatherlink.com 1.10,2013-06-30 01:00:00,
2013-06-29 20:15:00,81.1,56.0,29.77,NW,309,11.0,-999.0,43,-99.99,,,0.00,11,weatherlink.com 1.10,2013-06-30 01:15:00,
2013-06-29 20:30:00,80.3,56.0,29.77,NW,311,13.0,-999.0,44,-99.99,,,0.00,0,weatherlink.com 1.10,2013-06-30 01:30:00,
2013-06-29 20:45:00,79.8,57.0,29.78,NW,315,9.0,-999.0,46,-99.99,,,0.00,0,weatherlink.com 1.10,2013-06-30 01:45:00,
2013-06-29 21:00:00,79.3,57.0,29.78,NW,314,7.0,-999.0,47,-99.99,,,0.00,0,weatherlink.com 1.10,2013-06-30 02:00:00,
2013-06-29 21:15:00,79.0,58.0,29.79,NW,319,6.0,-999.0,48,-99.99,,,0.00,0,weatherlink.com 1.10,2013-06-30 02:15:00,
2013-06-29 21:30:00,78.7,58.0,29.79,NW,320,13.0,-999.0,49,-99.99,,,0.00,0,weatherlink.com 1.10,2013-06-30 02:30:00,
2013-06-29 21:45:00,76.8,60.0,29.81,NW,317,14.0,-999.0,57,-99.99,,,0.00,0,weatherlink.com 1.10,2013-06-30 02:45:00,
2013-06-29 22:00:00,75.5,61.0,29.81,North,5,17.0,-999.0,61,-99.99,,,0.00,0,weatherlink.com 1.10,2013-06-30 03:00:00,
2013-06-29 22:15:00,74.9,61.0,29.81,NNW,339,6.0,-999.0,63,-99.99,,,0.00,0,weatherlink.com 1.10,2013-06-30 03:15:00,
2013-06-29 22:30:00,74.7,61.0,29.81,NNW,348,6.0,-999.0,62,-99.99,,,0.00,0,weatherlink.com 1.10,2013-06-30 03:30:00,
2013-06-29 22:45:00,74.3,61.0,29.81,NNW,328,8.0,-999.0,63,-99.99,,,0.00,0,weatherlink.com 1.10,2013-06-30 03:45:00,
2013-06-29 23:00:00,73.9,61.0,29.81,NNW,340,9.0,-999.0,65,-99.99,,,0.00,0,weatherlink.com 1.10,2013-06-30 04:00:00,
2013-06-29 23:15:00,73.4,61.0,29.81,North,355,8.0,-999.0,66,-99.99,,,0.00,0,weatherlink.com 1.10,2013-06-30 04:15:00,
2013-06-29 23:30:00,73.2,61.0,29.81,NNW,342,8.0,-999.0,66,-99.99,,,0.00,0,weatherlink.com 1.10,2013-06-30 04:30:00,
2013-06-29 23:45:00,73.0,62.0,29.81,NW,319,8.0,-999.0,68,-99.99,,,0.00,0,weatherlink.com 1.10,2013-06-30 04:45:00,